Regional Weather Roundup
Issued by NWS

Home | Current Version | Previous Version | Graphics & Text | Print | Product List | Glossary On
Versions: 1 2 3 4 5 6 7 8 9 10 11 12 13 14 15 16 17 18 19 20 21 22 23 24 25 26 27 28 29 30 31 32 33 34 35 36 37 38 39 40 41 42 43 44 45 46 47 48 49 50
924
ASUS43 KBIS 101810
RWRND
NORTH DAKOTA REGIONAL WEATHER ROUNDUP
NATIONAL WEATHER SERVICE EASTERN NORTH DAKOTA/GRAND FORKS ND
1200 PM CST WED FEB 10 2016

  NOTE: "FAIR" INDICATES FEW OR NO CLOUDS BELOW 12,000 FEET WITH NO
  SIGNIFICANT WEATHER AND/OR OBSTRUCTIONS TO VISIBILITY.

NDZ001>003-009>011-017-101900-
...NORTHWEST NORTH DAKOTA...

CITY           SKY/WX    TMP DP  RH WIND       PRES   REMARKS
WILLISTON      CLOUDY    30  25  81 N10       30.03R WCI  21
6HR MIN TEMP:  23; 6HR MAX TEMP:  33;

MINOT          CLOUDY    17   8  67 NE6       30.02R HAZE    WCI   9
MINOT AFB      FLURRIES  16   9  73 NE6       30.04R WCI   7
6HR MIN TEMP:  13; 6HR MAX TEMP:  16;

$$

NDZ018>021-031>035-040>046-101900-
...SOUTHWEST NORTH DAKOTA...

CITY           SKY/WX    TMP DP  RH WIND       PRES   REMARKS
BISMARCK       CLOUDY    25  16  68 E6        29.97R WCI  18
DICKINSON      SUNNY     40  30  67 N18G26    29.90R WCI  31
GARRISON         N/A     19  14  81 SE3       29.97R
HETTINGER      SUNNY     47  29  49 NW22G30   29.92R
$$

NDZ004>008-012>016-024-026-027-054-101900-
...NORTHEAST NORTH DAKOTA...

CITY           SKY/WX    TMP DP  RH WIND       PRES   REMARKS
GRAND FORKS    CLOUDY     9   0  67 E7        30.17R WCI  -2
GRAND FORKS AF CLOUDY     8  -1  66 E5        30.16R WCI  -1
DEVILS LAKE    FLURRIES   6   1  80 E14       30.08R WCI -11
$$

NDZ022-023-025-028>030-036>039-047>053-101900-
...SOUTHEAST NORTH DAKOTA...

CITY           SKY/WX    TMP DP  RH WIND       PRES   REMARKS
JAMESTOWN      CLOUDY     8   4  83 E14       30.02R WCI  -8
FARGO          CLOUDY    11   3  70 E6        30.12S WCI   1
WAHPETON       CLOUDY    10   3  72 SE7       30.12R WCI   0
$$




USA.gov is the U.S. government's official web portal to all federal, state and local government web resources and services.